Regional Weather Roundup
Issued by NWS

Home | Current Version | Previous Version | Graphics & Text | Print | Product List | Glossary On
Versions: 1 2 3 4 5 6 7 8 9 10 11 12 13 14 15 16 17 18 19 20 21 22 23 24 25 26 27
000
ASUS45 KBOI 201810
RWRID
WEATHER ROUNDUP FOR IDAHO
NATIONAL WEATHER SERVICE BOISE ID
1200 PM MDT SUN APR 20 2014

NOTE: "FAIR" INDICATES FEW OR NO CLOUDS BELOW 12000 FEET
WITH NO SIGNIFICANT WEATHER AND/OR OBSTRUCTIONS TO VISIBILITY

IDZ012-014-201900-
SOUTHWEST IDAHO


CITY           SKY/WX    TMP DP  RH WIND       PRES   REMARKS
BOISE          SUNNY     55  31  39 NW14      30.29S
CALDWELL       SUNNY     55  28  35 NW9       30.32S
MOUNTAIN HOME  SUNNY     57  24  27 NW14      30.28S
$$

IDZ016-017-201900-
SOUTHCENTRAL IDAHO


CITY           SKY/WX    TMP DP  RH WIND       PRES   REMARKS
BURLEY         SUNNY     54  28  36 W20G33    30.23S
JEROME         SUNNY     54  26  34 SW23G32   30.26S
TWIN FALLS     SUNNY     56  25  30 W21G28    30.26S
$$

IDZ019>023-201900-
SOUTHEAST IDAHO


CITY           SKY/WX    TMP DP  RH WIND       PRES   REMARKS
IDAHO FALLS    SUNNY     55  30  38 SW17      30.20R
POCATELLO      SUNNY     56  25  30 W20G29    30.24S
REXBURG        SUNNY     54  28  36 SW13G18   30.18S
$$

IDZ006-010-011-018-031-032-201900-
CENTRAL IDAHO MOUNTAINS


CITY           SKY/WX    TMP DP  RH WIND       PRES   REMARKS
MCCALL         SUNNY     48  10  21 VRB5      30.24S
HAILEY         MOSUNNY   57  21  24 CALM      30.18F
STANLEY          N/A     45   7  21 N6        30.25R
SALMON         SUNNY     52  19  28 N3        30.22S
CHALLIS        SUNNY     53   9  17 SW7       30.20S
$$

IDZ002-004-006-007-026-201900-
NORTHERN IDAHO


CITY           SKY/WX    TMP DP  RH WIND       PRES   REMARKS
LEWISTON       MOSUNNY   57  28  33 VRB6      30.30R
LOWELL           N/A     56  35  45 S3        30.31F
COEUR D`ALENE  PTSUNNY   46  32  57 CALM      30.29R
MULLAN PASS    CLOUDY    31  23  72 CALM      30.23R
$$



USA.gov is the U.S. government's official web portal to all federal, state and local government web resources and services.